Location: Launois
(49.6535°N, 4.5395°E)
Time: 09:33:48
(UTC+00:00)

CZ-2D R/B - Pass Details

Date: 15 August 2024
Orbit: 791 x 842 km, 98.8° (Epoch: 16 September)

Event Time Altitude Azimuth Distance (km) Brightness Sun altitude
Rises 03:05:24 0° 8° (N) 3,335 6.1 -12.9°
Reaches altitude 10° 03:07:59 10° 357° (N) 2,408 5.1 -12.5°
Maximum altitude 03:12:32 30° 299° (WNW) 1,441 3.2 -12.0°
Enters shadow 03:16:10 15° 246° (WSW) 2,117 3.7 -11.5°
